TimeEDT,TemperatureF,Dew PointF,Humidity,Sea Level PressureIn,VisibilityMPH,Wind Direction,Wind SpeedMPH,Gust SpeedMPH,PrecipitationIn,Events,Conditions,WindDirDegrees,DateUTC
12:53 AM,66.9,64.0,90,30.05,5.0,Calm,Calm,-,N/A,,Clear,0,2013-09-20 04:53:00
1:53 AM,66.0,63.0,90,30.05,4.0,Calm,Calm,-,N/A,,Clear,0,2013-09-20 05:53:00
2:34 AM,66.2,62.6,88,30.08,1.8,Calm,Calm,-,N/A,,Clear,0,2013-09-20 06:34:00
2:45 AM,66.2,62.6,88,30.08,3.0,Calm,Calm,-,N/A,,Clear,0,2013-09-20 06:45:00
2:53 AM,66.0,63.0,90,30.05,6.0,Calm,Calm,-,N/A,,Clear,0,2013-09-20 06:53:00
3:53 AM,64.9,63.0,93,30.04,4.0,Calm,Calm,-,N/A,,Clear,0,2013-09-20 07:53:00
4:53 AM,64.0,62.1,93,30.04,2.5,Calm,Calm,-,N/A,,Clear,0,2013-09-20 08:53:00
5:05 AM,64.4,62.6,94,30.07,5.0,Calm,Calm,-,N/A,,Clear,0,2013-09-20 09:05:00
5:37 AM,64.4,60.8,88,30.07,1.5,Calm,Calm,-,N/A,,Clear,0,2013-09-20 09:37:00
5:39 AM,62.6,60.8,94,30.07,0.8,Calm,Calm,-,N/A,,Mist,0,2013-09-20 09:39:00
5:53 AM,64.0,61.0,90,30.03,0.8,Calm,Calm,-,N/A,,Mist,0,2013-09-20 09:53:00
5:55 AM,64.4,60.8,88,30.07,2.0,Calm,Calm,-,N/A,,Partly Cloudy,0,2013-09-20 09:55:00
6:02 AM,62.6,60.8,94,30.07,6.0,Calm,Calm,-,N/A,,Partly Cloudy,0,2013-09-20 10:02:00
6:31 AM,62.6,60.8,94,30.06,2.0,Calm,Calm,-,N/A,,Clear,0,2013-09-20 10:31:00
6:51 AM,64.4,60.8,88,30.06,3.0,Calm,Calm,-,N/A,,Clear,0,2013-09-20 10:51:00
6:53 AM,64.0,61.0,90,30.03,3.0,Calm,Calm,-,N/A,,Clear,0,2013-09-20 10:53:00
7:01 AM,62.6,60.8,94,30.07,2.5,Calm,Calm,-,N/A,,Clear,0,2013-09-20 11:01:00
7:10 AM,62.6,60.8,94,30.06,3.0,Calm,Calm,-,N/A,,Clear,0,2013-09-20 11:10:00
7:18 AM,62.6,60.8,94,30.07,2.5,Calm,Calm,-,N/A,,Clear,0,2013-09-20 11:18:00
7:38 AM,62.6,60.8,94,30.07,3.0,Calm,Calm,-,N/A,,Clear,0,2013-09-20 11:38:00
7:53 AM,64.0,61.0,90,30.04,4.0,Calm,Calm,-,N/A,,Clear,0,2013-09-20 11:53:00
8:53 AM,68.0,63.0,84,30.04,8.0,Calm,Calm,-,N/A,,Clear,0,2013-09-20 12:53:00
9:53 AM,73.9,64.9,73,30.04,10.0,SW,4.6,-,N/A,,Clear,220,2013-09-20 13:53:00
10:53 AM,77.0,64.0,64,30.03,10.0,SSW,9.2,-,0.01,,Clear,210,2013-09-20 14:53:00
11:53 AM,79.0,63.0,58,30.02,10.0,WSW,8.1,-,N/A,,Clear,250,2013-09-20 15:53:00
12:53 PM,81.0,64.0,56,30.00,10.0,WSW,10.4,-,N/A,,Clear,250,2013-09-20 16:53:00
1:53 PM,82.0,64.0,54,29.98,10.0,West,6.9,-,N/A,,Partly Cloudy,260,2013-09-20 17:53:00
2:53 PM,82.0,64.0,54,29.95,10.0,SSW,8.1,-,N/A,,Mostly Cloudy,210,2013-09-20 18:53:00
3:53 PM,82.0,64.0,54,29.92,10.0,SW,6.9,-,N/A,,Overcast,230,2013-09-20 19:53:00
4:53 PM,82.0,64.0,54,29.90,10.0,SSW,5.8,-,N/A,,Mostly Cloudy,210,2013-09-20 20:53:00
5:53 PM,81.0,64.0,56,29.90,10.0,SSW,5.8,-,N/A,,Partly Cloudy,200,2013-09-20 21:53:00
6:53 PM,79.0,64.0,60,29.88,10.0,South,4.6,-,N/A,,Partly Cloudy,170,2013-09-20 22:53:00
7:53 PM,75.9,64.9,69,29.88,10.0,Calm,Calm,-,N/A,,Clear,0,2013-09-20 23:53:00
8:53 PM,73.0,64.9,76,29.88,10.0,Calm,Calm,-,N/A,,Clear,0,2013-09-21 00:53:00
9:53 PM,71.1,64.0,78,29.87,10.0,Calm,Calm,-,N/A,,Clear,0,2013-09-21 01:53:00
10:53 PM,71.1,64.0,78,29.86,10.0,Calm,Calm,-,N/A,,Clear,0,2013-09-21 02:53:00
11:53 PM,70.0,64.0,81,29.85,10.0,Calm,Calm,-,N/A,,Clear,0,2013-09-21 03:53:00